Find Kosmos-1522

NORAD ID: 14611 Int'l Des: 1984-001 Owner: GUKOS Country: SU operational
LEOCIRCULAR

当前视图

正在加载3D地球...

About Kosmos-1522

Kosmos-1522 (NORAD 14611) is a satellite launched Jan 5, 1984 by GUKOS of SU. It operates in LEO, CIRCULAR orbit with a mass of 60.00 kg.

即将过境

Passes for default location (London). Set your location on the main map for personalized predictions.

高度历史

Loading altitude history...

两行轨道根数

1 14611U 84001A 26194.61984259 -.00000006 00000-0 66164-4 0 9996
2 14611 74.0081 27.5676 0019732 142.2566 275.4553 12.47066283935665
Epoch: Jul 13, 2026 • Age: 12 hours

当前状态

高度 1483.5 km
远地点 / 近地点 N/A
速度 7.13 km/s
星下点 56.98°N, 84.33°E
发射日期 Jan 5, 1984
运行时间 42.5 years
类型 other

技术详情

分类 Payload
质量 60.00 kg
干质量 60.00 kg
总质量 60.00 kg
长度 0.80 m
直径 0.80 m
跨度 0.80 m
形状 Poly
制造商 NPOPM
平台类型 Strela-1 11F625
阶段状态 In Orbit
所有者/国家 GUKOS/SU

Most Searched